Regional Weather Roundup
Issued by NWS Wakefield, VA

Home | Current Version | Previous Version | Graphics & Text | Print | Product List | Glossary On
Versions: 1 2 3 4 5 6 7 8 9 10 11 12 13 14 15 16 17 18 19 20 21 22 23 24 25 26 27 28 29 30 31 32 33 34 35 36 37 38 39 40 41 42 43 44 45 46 47 48 49 50
000
ASUS41 KAKQ 040515
RWRAKQ

REGIONAL WEATHER ROUNDUP
NATIONAL WEATHER SERVICE WAKEFIELD VA
100 AM EDT TUE AUG 04 2015

Note: "fair" indicates few or no clouds below 12,000 feet with no
significant weather and/or obstructions to visibility. * = Denotes
station may not report precipitation (e.g., rain,snow,etc.),
thunder or fog.

VAZ042-051-052>054-056-040600-
NORTHERN VIRGINIA

CITY           SKY/WX    TMP DP  RH WIND       PRES   REMARKS
WASH NATIONAL  MOCLDY    81  69  67 S6        29.84S HAZE
DULLES         PTCLDY    74  64  71 S7        29.85R
FORT BELVOIR   PTCLDY    73  69  88 VRB1      29.85R
QUANTICO       NOT AVBL
FREDERICKSBRG* PTCLDY    79  69  69 SW8       29.86R
STAFFORD*      PTCLDY    76  66  72 SW5       29.90R
WARRENTON      PTCLDY    73  67  81 SW3       29.86S
CULPEPER*      PTCLDY    70  65  82 CALM      29.88R
MANASSAS*      PTCLDY    70  66  88 CALM      29.86S
LEESBURG*      PTCLDY    77  68  73 W7        29.86S
WINCHESTER     PTCLDY    77  63  61 SW6       29.87S
FRONT ROYAL*   FAIR      75  63  64 SW5       29.87S
LURAY*         FAIR      73  63  68 SW3       29.91R
$$

VAZ048-049-060>072-079>083-040600-
CENTRAL AND SOUTH CENTRAL VIRGINIA

CITY           SKY/WX    TMP DP  RH WIND       PRES   REMARKS
RICHMOND       CLEAR     79  71  76 S10       29.89S
CHESTERFIELD*  FAIR      79  63  57 SW9       29.91S
PETERSBURG*    CLEAR     78  75  92 CALM      29.92S
HANOVER        CLEAR     79  70  74 S7        29.90S
TAPPAHANNOCK*  CLEAR     76  70  81 CALM      29.89S
QUINTON*       FAIR      79  72  80 SW5       29.89S
CHARLOTTSVILLE PTCLDY    72  65  78 SW3       29.89S
GORDONSVILLE*  FAIR      66  66 100 CALM      29.89R
ORANGE*        PTCLDY    70  66  88 CALM      29.90R
LOUISA*        PTCLDY    72  66  83 CALM      29.88S
BUMPASS*       FAIR      74  67  81 SE3       29.87F
FARMVILLE*     CLEAR     74  72  93 SW3       29.90S
CREWE*         FAIR     N/A N/A N/A S3        29.91S
FORT PICKETT*  FAIR      76  71  83 S9        29.92S
CHASE CITY*    FAIR      79  74  85 CALM      29.94R
CLARKSVILLE*   FAIR      77  70  78 S8        29.93S
SOUTH HILL*    CLEAR     74  71  87 S7        29.99S
LAWRENCEVILLE* FAIR      75  72  88 S6        29.93S
EMPORIA*       CLEAR     73  72  94 SE3       29.94S
$$

VAZ088>098-040600-
SOUTHEAST VIRGINIA

CITY           SKY/WX    TMP DP  RH WIND       PRES   REMARKS
NORFOLK        CLEAR     78  71  79 SW14      29.93R
VIRGINIA BEACH CLEAR     79  71  76 SW13      29.93R
NORFOLK NAVAL  CLEAR     77  72  84 S9        29.94R
WEST POINT*    CLEAR     82  73  75 S7        29.91R
SALUDA*        FAIR      79  75  87 SW9G21    29.88S
NEWPORT NEWS   CLEAR     79  74  84 S12       29.92R
LANGLEY AFB    CLEAR     79  74  85 S14       29.91S
FORT EUSTIS    CLEAR     80  80 100 S9        29.90R
WILLIAMSBURG*  CLEAR     82  75  78 SW9       29.92S
HR EXEC AP*    FAIR      75  72  88 S8        29.96R
FRANKLIN*      CLEAR     76  73  88 S8        29.94R
WAKEFIELD      CLEAR     78  72  81 S5        29.92R
$$

VAZ020-022-025-037-045-040600-
WEST CENTRAL AND SOUTHWEST VIRGINIA

CITY           SKY/WX    TMP DP  RH WIND       PRES   REMARKS
STAUNTON*      PTCLDY    72  62  71 CALM      29.95R
WAYNESBORO*    FAIR      72  60  67 SW3       29.95S
HOT SPRINGS VA CLOUDY    71  59  65 W18G24    30.07F
LYNCHBURG      MOCLDY    70  64  81 SW5       29.95R
DANVILLE       CLEAR     75  67  76 SW5       29.95R
SOUTH BOSTON*  FAIR      75  68  79 SW5       29.94R
MARTINSVILLE   MOCLDY    69  69 100 CALM      29.99R
ROANOKE        CLOUDY    75  60  59 W8        29.99R
BLACKSBURG     CLOUDY    70  62  77 CALM      30.06S
DUBLIN*          N/A     71  63  73 SW3       30.06R
MARION*        CLOUDY    66  62  87 CALM      30.10S
HILLSVILLE*    CLOUDY    69  60  72 SW5       30.07R
RICHLANDS*     FAIR      70  60  71 CALM      30.08S
WISE*          MOCLDY    70  59  68 SW5       30.10R
ABINGDON*      PTCLDY    67  61  80 CALM      30.06R
$$

MDZ021>025-VAZ099-100-040600-
SOUTHERN MARYLAND AND THE DELMARVA PENINSULA

CITY           SKY/WX    TMP DP  RH WIND       PRES   REMARKS
PATUXENT RIVER CLEAR     79  72  79 SW10      29.86S
BAY BRIDGE APT   N/A     81  70  69 S8        29.84S
LEONARDTOWN    CLEAR     79  70  73 SW6       29.88S
DOVER          CLEAR     77  74  91 S10       29.82S
GEORGETOWN     CLEAR     77  74  90 SW9       29.87S
EASTON         CLEAR     81  75  82 SW9       29.88S
CAMBRIDGE      CLEAR     81  73  78 S6        29.85F
SALISBURY      CLEAR     77  74  90 S9        29.87S
OCEAN CITY     CLEAR     80  75  84 SW13G20   29.88S
WALLOPS ISLAND CLEAR     77  77 100 S15       29.90R
ACCOMACK*      CLEAR     79  79 100 SW10      29.90R
$$

NCZ012>017-030>032-040600-
NORTH CENTRAL AND EASTERN NORTH CAROLINA

CITY           SKY/WX    TMP DP  RH WIND       PRES   REMARKS
ROANOKE RAPIDS FAIR      73  72  94 S7        29.95R
RALEIGH        PTCLDY    79  70  74 SW9       29.97S
ELIZABETH CITY CLEAR     77  74  90 S14       29.96S
AHOSKIE*       CLEAR     75  71  87 S8        29.96R
EDENTON*         N/A     76  73  91 S10       29.97S
CURRITUCK*     CLEAR     77  73  85 S7        29.96S
KILL DEVIL HLS CLEAR     78  74  86 SW7G17    29.96S
MANTEO         CLEAR     79  75  87 SW18      29.98S
CAPE HATTERAS  LGT RAIN  79  75  87 SW15G23   30.00S
TARBORO*         N/A     76  72  87 S6        29.98R
GOLDSBORO      CLEAR     76  75  97 S5        29.97R
WASHINGTON     CLEAR     75  73  93 S6        29.98S
GREENVILLE     CLEAR     77  73  88 SW8       29.99S
NEW BERN       PTCLDY    78  74  87 S6        30.00S
WILMINGTON     MOCLDY    79  76  90 S6        29.98S
$$

VAZ048-040600-
ELSEWHERE

CITY           SKY/WX    TMP DP  RH WIND       PRES   REMARKS
HARRISBURG PA  MOCLDY    76  68  76 CALM      29.82R
BALTIMORE      PTCLDY    77  65  66 SW3       29.83S
ANNAPOLIS      CLEAR     78  69  73 S3        29.83S
ANDREWS AFB    PTCLDY    77  67  72 SW9       29.84S
PHILADELPHIA   PTCLDY    80  71  74 SW9       29.83R
HENDERSON NC   CLEAR     77  66  69 S10       29.95S
GREENSBORO     PTCLDY    77  68  73 SW12      29.97R
ROCKY MOUNT    CLEAR     77  73  87 SW12      29.97R
$$

VAZ100-040600-
MARINE

STATION/POSITION TIME  TEMP    WIND        PRES    WAVE   SWELL
                       AIR SEA DIR/SP/G            HT/PER HT/PER
                 (UTC) (F)     (DEG/KT/KT) (MB)    (FT/S) (FT/S)
BRANDYWINE LGT   0400   76 75  200/ 15/ 15 1011.1F
CAPE MAY NJ      0400   76 78  170/  7/ 11 1010.7F
LEWES DE         0400   80 73  210/  5/  9 1010.9F
15NM E FENWICK I 0450   80 79  200/ 17/ 21 1011.3F   6/ 6   2/ 9
OCEAN-CITY-INLET 0400   77 76  200/ 14/ 17 1011.0S
WACHAPREAGUE VA  0400   81 84  230/  8/ 12 1012.5F
GOOSES REEF MD   0500   82 82  210/ 14/ 16 1011.7F
COVE POINT MD    0400   81     220/ 12/ 16 1011.5R
SOLOMONS ISLAND  0400      83                N/A
BISHOPS HEAD MD  0400   83 83  200/ 17/ 21 1010.1F
PINEY POINT MD   0400          220/ 14/ 16   N/A
POTOMAC MD       0500   82 83  230/ 16/ 19 1010.5R   2/ 3
CAMBRIDGE MD     0400   80 84  190/  5/  7 1010.0R
LEWISETTA VA     0400   80 85  220/ 11/ 13 1011.0R
RAPPAHANNOCK LGT 0400          190/ 20/ 23 1012.4F
STINGRAY PT      0500   82 83  220/ 16/ 19 1012.0R   2/ 2
YORK RVR RNG VA  0400   81     210/ 16/ 18 1011.9F
YORKTOWN VA      0400   81 84  210/  8/ 12 1012.1F
JAMESTOWN VA     0500   80 85  200/ 12/ 16   N/A
DOMINION TERM VA 0400   80     210/ 13/ 16 1012.8R
KIPTOPEKE VA     0400      82  220/ 17/ 19   N/A
CHES BAY BRIDGE  0400   80 78  180/ 13/ 17 1012.6R
CAPE HENRY VA    0400   78     200/  9/ 14   N/A
CHESAPEAKE LGHT  0400   79     200/ 22/ 23 1013.7F
WILLOUBY STN VA  0400   80     210/ 15/ 17 1013.9R
CAPE HENRY BUOY  0428      80                N/A     3/11   2/11
1ST LANDING BUOY 0500      80              1013.0R   1/ 3
CAPE CHARLES BUO 0426      77                N/A     3/ 5   2/11
OFFSHORE WE BUOY 0411      82                N/A     5/ 6   2/11
64NM E OF VA BCH 0450   80 81  210/ 23/ 29 1013.6F   6/ 6   2/11
DUCK PIER NC     0400   78 64  200/ 16/ 21 1013.7R
44100 DUCK FRF   0424      79                N/A     3/ 5
44056 DUCK FRF   0411      69                N/A     2/11   2/11
OREGON INLET NC  0400   80 81  180/ 19/ 22 1015.4R
HATTERAS NC      0400   79 79  180/  7/ 11 1015.6R
DIAMOND SHLS NC  0450   82 84  190/ 21/ 25 1015.8F   5/ 7   2/11


USA.gov is the U.S. government's official web portal to all federal, state and local government web resources and services.